User: anonymous   Login
Location: Unspecified
(0.0000°N, 0.0000°E)
Time: 10:28:12
(UTC+00:00)
Language:

SPROUT - Orbit

View from above orbital plane
View from above orbital plane
View from above satellite
View from above satellite

Ground track
Ground track

The orbit data is extracted from the following two-line orbital elements,

1 39770U 14029E   21340.54861515  .00002086  00000-0  22777-3 0  9991
2 39770  97.9305  91.8595 0008745  10.5555 349.5847 14.88972503408945
Epoch (UTC): 06 December 2021 13:10:00
Eccentricity: 0.0008745
inclination: 97.9305°
perigee height: 595 km
apogee height: 607 km
right ascension of ascending node: 91.8595°
argument of perigee: 10.5555°
revolutions per day: 14.88972503
mean anomaly at epoch: 349.5847°
orbit number at epoch: 40894

The dashed part of the orbit path shows where the satellite is in the earth's shadow,  

DLR